Historyczne dane pomiarowe

Dodano dane terminowe – wersja testowa.

Dane z okresu 1951-2019

Wersja bazy: 1.34 [2019-03-16, lista zmian], aktualizacja planowana na 2019-04-15

Dane meteo z obszaru Polski uzyskane na podstawie danych udostępnionych przez Instytut Meteorologii i Gospodarki Wodnej – Państwowy Instytut Badawczy.

 

Wybierz Datę:    

       

TemperaturaWilgotnośćZachmurzenieWiatrCiśnienieWidzialnośćZjawiska
 Data    tng td wb rh cc ccl cl cm ch dir g1 g2 mslp ppp      
1973-04-19 00:00:00 -6.5--- -6.6 -6.399wxwx13wx--- 823.8 0.6---wxw1
1973-04-19 01:00:00 -6.7------wxwx18wx--- 822.5----wxw1
1973-04-19 02:00:00 -6.8------wxwx8wx--- 822.4----wxw1
1973-04-19 03:00:00 -6.9--- -7.0 -6.799wxwxwx14wx--- 821.9----wxw1
1973-04-19 04:00:00 -7.2------wxwx13wx--- 821.5----wxw1
1973-04-19 05:00:00 -7.4------wxwxwx11wx--- 821.7----wxw1
1973-04-19 06:00:00 -7.4--- -7.9 -7.396wxwxwx12wx--- 821.8 1.3---wxw1
1973-04-19 07:00:00 -6.9------wxwx6wx--- 821.9----wxw1
1973-04-19 08:00:00 -7.0------wxwx8wx--- 821.5----wxw1
1973-04-19 09:00:00 -6.4--- -6.5 -6.299wxwx9wx--- 821.9----wxw1
1973-04-19 10:00:00 -5.8------wxwx0wx--- 822.0----wxw1
1973-04-19 11:00:00 -5.0------wxwx0wx--- 821.9----wxw1
1973-04-19 12:00:00 -4.2--- -4.7 -4.296wxwx0wx--- 821.9 0.2---wxw1
1973-04-19 13:00:00 -5.5------wxwx0wx--- 821.7----wxw1
1973-04-19 14:00:00 -4.6------wxwx0wx--- 821.9----wxw1
1973-04-19 15:00:00 -4.5--- -5.1 -4.596wxwx0wx--- 822.1----wxw1
1973-04-19 16:00:00 -4.8------wxwxwx4wx--- 822.0----wxw1
1973-04-19 17:00:00 -5.0------wxwxwxwx6wx--- 822.5----wx
1973-04-19 18:00:00 -5.5--- -6.2 -5.595wxwxwxwx6wx--- 822.8 9.4---wxw1
1973-04-19 19:00:00 -6.8------wxwxwx6wx--- 823.0----wxw1
1973-04-19 20:00:00 -7.0------wxwxwx5wx--- 823.0----wx
1973-04-19 21:00:00 -6.8--- -7.6 -6.894wxwxwx4wx--- 823.4----wxw1
1973-04-19 22:00:00 -6.8------wxwxwx4wx--- 823.3----wx
1973-04-19 23:00:00 -7.0------wxwx0wx--- 823.4----wxw1

 

Źródłem pochodzenia danych jest Instytut Meteorologii i Gospodarki Wodnej – Państwowy Instytut Badawczy. Dane Instytutu Meteorologii i Gospodarki Wodnej – Państwowego Instytutu Badawczego zostały przetworzone.

Dane źródłowe można odnaleźć na stronie https://dane.imgw.pl